Simultaneous Nadir Overpasses (SNOs) Predictions

Prediction of SNOs between GOES-17 and NOAA-20 Satellite Orbit:

Table of predicted SNOs for the next 14.0 days since TLE Epoch: 5/1/2021
Index Date Time (GOES-17) GOES-17 Lat,Lon NOAA-20 Lat,Lon Distance(km) Time Diff (sec)
1 05/01/2021 22:43:10 0.02,-137.20 -0.42,-139.17 225.52 80
2 05/02/2021 22:24:26 0.02,-137.19 0.58,-134.64 290.23 80
3 05/04/2021 10:46:14 -0.02,-137.18 0.60,-139.92 311.81 80
4 05/05/2021 10:24:49 -0.02,-137.18 -0.41,-135.39 203.73 80
5 05/06/2021 22:46:47 0.01,-137.17 -0.76,-140.70 401.57 80
6 05/07/2021 22:30:42 0.01,-137.17 0.24,-136.17 113.94 80
7 05/09/2021 10:52:31 -0.01,-137.15 0.93,-141.44 488.43 80
8 05/10/2021 10:31:06 -0.01,-137.14 -0.07,-136.91 26.60 80
9 05/12/2021 22:34:19 0.01,-137.11 -0.09,-137.69 65.31 80
10 05/13/2021 22:18:14 0.01,-137.10 0.92,-133.16 449.28 80
